Regional Weather Roundup
Issued by NWS

Home | Current Version | Previous Version | Text Only | Print | Product List | Glossary Off
Versions: 1 2 3 4 5 6 7 8 9 10 11 12 13 14 15 16 17 18 19 20 21 22 23 24 25 26 27 28

000
ASUS45 KCYS 192110
RWRWY

WYOMING REGIONAL WEATHER ROUNDUP
NATIONAL WEATHER SERVICE CHEYENNE WY
300 PM MDT SAT APR 19 2014

NOTE:  "FAIR" INDICATES FEW OR NO CLOUDS BELOW 12,000 FEET
WITH NO SIGNIFICANT WEATHER AND/OR OBSTRUCTIONS TO VISIBILITY.

WYZ001-192200-
YELLOWSTONE NATIONAL PARK

CITY           SKY/WX    TMP DP  RH WIND       PRES   REMARKS
LK YELLOWSTONE   N/A     47   7  19 VRB6G16   30.09S
W YELLOWSTONE  NOT AVBL

$$
WYZ002>013-054>058-071-098>099-192200-
NORTHERN WYOMING

CITY           SKY/WX    TMP DP  RH WIND       PRES   REMARKS
JACKSON        SUNNY     55  16  21 S12G18    30.05S
CODY           SUNNY     64  19  17 W14G21    29.93F
GREYBULL       SUNNY     64  20  18 SE8       29.93F
WORLAND        MOSUNNY   63  22  20 VRB3      29.93F
SHERIDAN         N/A     57  28  33 SW14G25     N/A
BUFFALO        MOSUNNY   60  28  29 E10G21    29.96F
GILLETTE       SUNNY     61  25  25 SW8       29.99F
HULETT         FAIR      59  23  25 SW3       30.01
NEWCASTLE      FAIR      59  21  23 S12       30.02

$$
WYZ014>020-022>026-101>103-192200-
CENTRAL WYOMING

CITY           SKY/WX    TMP DP  RH WIND       PRES   REMARKS
BIG PINEY      PTSUNNY   63  19  18 SW18G31   30.07S
PINEDALE       CLEAR     54  21  28 N12G28    30.08F
DUBOIS         FAIR      54  10  17 W26G35    30.02S
LANDER         MOSUNNY   62  17  17 SE6       29.96S
RIVERTON       MOSUNNY   64  10  12 CALM      29.96F
CASPER         SUNNY     69  25  19 SW5G16    29.95S
DOUGLAS        MOSUNNY   60  35  39 SE12      30.00F

$$
WYZ021-027>030-104>119-192200-
SOUTHERN WYOMING

CITY           SKY/WX    TMP DP  RH WIND       PRES   REMARKS
EVANSTON       PTSUNNY   62  32  32 W20G25    30.08F
KEMMERER       MOCLDY    59  30  33 W21       30.08F
FORT BRIDGER   MOCLDY    65  31  28 W14G21    30.10S
ROCK SPRINGS   MOSUNNY   66  27  23 W18G26    30.05F
DIXON          FAIR      61  35  37 SW10G20   30.10S
RAWLINS        PTSUNNY   53  38  56 S18G24    30.06S
SARATOGA       MOCLDY    59  32  36 W18G24    30.08S
LARAMIE        CLOUDY    57  30  35 SW14      30.07F
CHEYENNE       PTSUNNY   60  37  42 SW10G18   30.06F
TORRINGTON     PTSUNNY   61  33  35 SE13G20   30.01F
PINE BLUFFS    FAIR      61  34  36 E5        30.05F

$$



USA.gov is the U.S. government's official web portal to all federal, state and local government web resources and services.